Terminal Aerodrome Forecast
Issued by NWS Boston, MA

Home | Current Version | Previous Version | Text Only | Print | Product List | Glossary On
Versions: 1 2 3 4 5 6 7 8 9 10 11 12 13 14 15 16 17 18 19 20 21 22 23 24 25 26 27 28 29 30 31 32 33 34 35 36 37 38 39 40 41 42 43 44 45 46 47 48 49 50
000
FTUS41 KBOX 270948 AAA
TAFPVD
TAF AMD
KPVD 270948Z 2710/2806 32011KT P6SM SCT020 OVC050
     FM271300 31006KT P6SM BKN040 BKN120
     FM272300 31005KT P6SM OVC030
     FM280400 33004KT 2SM BR BKN030
     FM280500 33004KT 2SM BR BKN025=

USA.gov is the U.S. government's official web portal to all federal, state and local government web resources and services.